Satellite: IDEFIX/ARIANE 
Catalog number: 27422
Epoch time:      103019.54248839
Element set:     212 
Inclination:       98.6998 deg
RA of node:        98.8771 deg
Eccentricity:    0.0011923
Arg of perigee:   235.0908 deg
Mean anomaly:     124.9153 deg
Mean motion:   14.27953335 rev/day
Decay rate:    3.7100E-006 rev/day^2
Epoch rev:            3717
Checksum:              326

Satellite: NOAA 17
Catalog number: 27453
Epoch time:      103019.89917139
Element set:     273 
Inclination:       98.7613 deg
RA of node:        91.2584 deg
Eccentricity:    0.0012640
Arg of perigee:    83.6928 deg
Mean anomaly:     276.5687 deg
Mean motion:   14.23275059 rev/day
Decay rate:    3.5800E-006 rev/day^2
Epoch rev:            2974
Checksum:              344

Satellite: HOT BIRD 6
Catalog number: 27499
Epoch time:      103013.80550721
Element set:     66 
Inclination:        0.0928 deg
RA of node:        32.8693 deg
Eccentricity:    0.0008090
Arg of perigee:   290.3889 deg
Mean anomaly:      92.5421 deg
Mean motion:    1.00271722 rev/day
Decay rate:    1.0600E-006 rev/day^2
Epoch rev:             147
Checksum:              269

Satellite: RUBIN 2
Catalog number: 27605
Epoch time:      103020.21817919
Element set:     34 
Inclination:       64.5528 deg
RA of node:       286.3633 deg
Eccentricity:    0.0030466
Arg of perigee:   122.9506 deg
Mean anomaly:     237.4526 deg
Mean motion:   14.71385883 rev/day
Decay rate:    1.0339E-005 rev/day^2
Epoch rev:             449
Checksum:              300

Satellite: STS-107
Catalog number: 27647
Epoch time:      103020.58333333
Element set:     18 
Inclination:       39.0142 deg
RA of node:       202.9932 deg
Eccentricity:    0.0011031
Arg of perigee:    25.0418 deg
Mean anomaly:     332.9930 deg
Mean motion:   15.98413253 rev/day
Decay rate:    5.4971E-004 rev/day^2
Epoch rev:              62
Checksum:              268


Read previous mail | Read next mail


 01.07.2025 15:43:25lGo back Go up